#timestamp,LO_Frequency,Hit,StdDev 
1618356775.7,286047018.9,P
1618356795.5,286047019.6,P
1618356815.4,286047020.4,P
1618356835.2,286047017.5,Y
1618356855.1,286046998.4,P
1618356856.0,286046998.4,N
1618356875.8,286047011.9,N
1618356895.6,286046998.7,N
1618356915.5,286047001.1,N
1618356935.3,286047000.4,N
1618356955.1,286047000.8,N
1618356975.9,286046998.1,N
1618356995.7,286047000.3,N
1618357015.6,286046999.7,N
1618357035.4,286047002.3,N
1618357055.2,286047002.8,N
1618357075.1,286047000.4,N
1618357076.0,286047000.4,N
1618357095.8,286047000.2,N
1618357115.6,286047000.4,N
1618357135.5,286047000.7,N
1618357155.3,286047011.9,N
1618357175.2,286046998.3,N
1618357195.9,286046996.7,N
1618357215.7,286046999.6,N
1618357235.6,286046999.1,N
1618357255.4,286046997.2,N
1618357275.2,286046997.5,N
1618357295.1,286046995.3,N
1618357296.0,286046995.3,N
1618357315.8,286046997.4,N
1618357335.7,286046995.5,N
1618357355.5,286046996.1,N
1618357375.3,286046996.4,N
1618357395.2,286046996.4,N
1618357415.9,286046993.7,N
1618357435.7,286046995.5,N
1618357455.6,286046997.6,N
1618357475.4,286046995.2,N
1618357495.2,286046995.6,N
1618357515.1,286046996.4,N
1618357516.0,286046996.4,N
1618357535.8,286046995.4,N
1618357555.7,286046995.6,N
1618357575.5,286046995.6,N
1618357595.3,286046995.3,N
1618357615.2,286046995.4,N
1618357635.0,286046997.2,N
1618357635.9,286046997.2,N
1618357655.8,286046998.0,N
1618357675.6,286046997.9,N
1618357695.4,286046998.0,N
1618357715.3,286046996.1,Y
1618357735.1,286047000.8,P
1618357755.8,286046998.1,N
1618357775.7,286046998.6,N
1618357795.5,286046998.6,N
1618357815.4,286046999.5,N
1618357835.2,286046999.0,N
1618357855.0,286046998.6,N
1618357855.9,286046998.6,N
1618357875.8,286046998.8,N
1618357895.6,286047001.0,N
1618357915.4,286047000.6,N
1618357935.3,286047000.9,N
1618357955.1,286047000.9,N
1618357975.9,286047002.8,N
1618357995.7,286047000.9,N
1618358015.5,286046998.5,N
1618358035.4,286046998.1,N
1618358055.2,286047000.6,N
1618358075.0,286047000.6,N
1618358075.9,286047000.6,N
1618358095.8,286047000.7,N
1618358115.6,286046998.9,N
1618358135.5,286046998.6,N
1618358155.3,286046999.1,N
1618358175.1,286046996.5,N
1618358195.9,286046998.4,N
1618358215.7,286046999.5,N
1618358235.5,286046996.9,N
1618358255.4,286046999.2,N
1618358275.2,286046999.0,N
1618358295.0,286046996.5,N
1618358296.0,286046996.5,N
1618358315.8,286046998.3,N
1618358335.6,286046999.4,N
1618358355.5,286046998.6,N
1618358375.3,286047000.8,N
1618358395.1,286046998.6,N
